Location: De Har
(53.3413°N, 6.6858°E)
Time: 08:58:47
(UTC+00:00)

Cosmos 1937 Rocket - Pass Details

Date: 22 April 2026
Orbit: 742 x 775 km, 74.0° (Epoch: 15 May)

Event Time Altitude Azimuth Distance (km) Brightness Sun altitude
Rises 02:25:05 0° 335° (NNW) 3,241 7.0 -14.8°
Reaches altitude 10° 02:27:32 10° 339° (NNW) 2,306 6.3 -14.6°
Maximum altitude 02:32:41 56° 58° (ENE) 901 4.2 -14.0°
Drops below altitude 10° 02:37:44 10° 137° (SE) 2,270 6.0 -13.5°
Sets 02:40:08 0° 142° (SE) 3,186 6.7 -13.2°
